Location: *
(16.4167°N, 80.4542°E)
Time: 22:42:26
(UTC+00:00)

Daily predictions for brighter satellites

Satellite Brightness Start Highest point End
(mag) Time Altitude Azimuth Time Altitude Azimuth Time Altitude Azimuth
SMAP 3.6 12:34:50 10° S 12:39:26 64° WSW 12:44:02 10° NNW
Cosmos 1992 Rocket 4.4 12:36:39 10° SSW 12:41:51 71° WNW 12:47:03 10° N
Cosmos 2228 3.1 12:37:44 10° S 12:42:03 58° E 12:46:21 10° NNE
USA 234 3.4 12:36:22 10° NE 12:42:48 60° SE 12:49:13 10° SSW
Cosmos 2218 Rocket 4.4 12:37:07 10° N 12:43:14 69° W 12:49:18 10° S
Cosmos 1174 4.4 12:42:12 10° NNE 12:44:29 20° ENE 12:46:45 10° ESE
YAOGAN 6 3.7 12:42:11 10° SE 12:45:15 25° ENE 12:48:19 10° NNE
Palapa 6 Rocket 4.5 12:41:36 10° WNW 12:48:39 81° SSW 12:56:41 10° ESE
SL-08 R/B 4.5 12:43:27 10° N 12:49:42 84° E 12:55:50 10° S
Cosmos 1953 3.0 12:48:56 10° SSW 12:52:54 59° W 12:56:54 10° N
Cosmos 921 Rocket 3.0 12:50:44 10° S 12:55:13 82° E 12:59:44 10° NNE
Hubble Space Telescope 1.1 12:52:40 10° NW 12:56:42 50° NNE 13:00:00 14° E
ASTEX 1 3.4 12:52:04 10° N 12:57:01 77° E 13:01:59 10° S
FengYun 1-2 T 4.4 12:52:03 10° SSE 12:57:30 51° ENE 13:02:56 10° N
Meteosat 1 Rocket2 2.8 12:56:36 10° WSW 13:00:10 66° NNW 13:03:28 14° ENE
Cosmos 489 Rocket 4.5 12:54:09 10° S 13:00:15 60° ESE 13:06:21 10° NNE
COSMO-SKYMED 1 4.3 12:56:31 10° N 13:00:30 37° WNW 13:04:29 10° SW
NOAA 12 4.4 12:59:29 10° S 13:04:42 71° WSW 13:09:56 10° NNW
CZ-4 R/B 4.3 13:04:47 10° SSE 13:08:52 69° ENE 13:12:57 10° N
Cosmos 1271 Rocket 3.3 13:09:44 10° NNE 13:13:25 36° E 13:17:06 10° SSE
CSL-04 Debris 4.2 13:09:15 10° SSE 13:14:30 56° ENE 13:19:48 10° N
Cosmos 1953 Rocket 3.8 13:11:24 10° NNE 13:15:31 42° E 13:19:35 10° SSE
Cosmos 1825 Rocket 3.4 13:11:25 10° N 13:15:46 74° E 13:20:09 10° S
CZ-4C R/B 3.8 13:11:25 10° N 13:18:14 30° ENE 13:22:45 19° ESE
Meteor 2-12 Rocket 4.4 13:15:30 10° N 13:21:39 82° E 13:27:48 10° S
CZ-4 R/B 1.7 13:21:44 10° S 13:25:43 70° W 13:29:48 10° NNW
Envisat 3.9 13:22:20 10° S 13:27:15 52° W 13:32:11 10° NNW
Cosmos 1339 Rocket 4.3 13:23:52 10° S 13:29:53 70° E 13:35:54 10° N
Cosmos 1726 3.2 13:30:29 10° SSW 13:34:01 46° W 13:37:33 10° N
Meteor 1-21 Rocket 4.4 13:29:13 10° N 13:35:01 76° W 13:40:42 10° S
GPS 2-12 Rocket1 3.0 13:31:45 10° W 13:36:15 71° N 13:37:30 45° ENE
YAOGAN 1 2.9 13:36:12 10° S 13:40:29 64° W 13:44:46 10° NNW
IUS-18 SRM-1 4.0 13:38:05 10° W 13:44:11 25° NNW 13:45:28 20° N
Cosmos 2278 Rocket 2.2 13:38:45 10° SSW 13:44:24 81° WNW 13:50:04 10° NNE
Cosmos 1727 Rocket 3.9 13:39:00 10° S 13:45:07 61° E 13:51:11 10° NNE
EO 1 Delta rocket 4.0 13:41:58 10° S 13:47:26 79° W 13:52:07 10° NNW
BREEZE-M DEB (TANK) 3.3 13:45:54 10° SW 13:48:36 61° NW 13:50:57 28° NNE
ATLAS 3B R/B 4.1 13:43:32 10° SSE 13:46:08 19° SE 13:46:08 19° SE
Cosmos 1908 4.5 13:49:22 10° SSW 13:53:03 42° W 13:56:46 10° NNW
Cosmos 1605 Rocket 3.9 13:51:56 10° N 13:57:58 59° E 13:59:42 44° SE
USA 238 DEB 3.7 13:55:08 10° SSW 14:01:45 77° WNW 14:06:25 21° NNE
USA 238 3.6 13:55:14 10° SSW 14:01:51 78° WNW 14:06:26 22° NNE
ISS -1.1 14:00:57 10° W 14:03:08 17° SW 14:04:05 15° SW
CENTAUR R/B 4.3 14:00:54 10° S 14:01:04 11° SSE 14:01:04 11° SSE
Cosmos 1354 Rocket 3.9 14:01:51 10° NNW 14:07:05 84° WSW 14:07:46 68° S
ADEOS Rocket 3.2 14:01:48 10° NNE 14:09:19 71° ESE 14:16:09 10° S
Ariane Rocket 2.9 14:09:29 78° SSW 14:09:47 83° WSW 14:14:52 10° NNW
IRS-1A Rocket 4.4 14:17:00 64° NNW 14:17:00 64° NNW 14:21:38 10° NNW
Atlas Centaur 2 3.2 14:21:59 10° WNW 14:24:56 31° NW 14:24:56 31° NW
NOSS 3-2 (A) 3.9 14:25:24 10° SW 14:30:39 48° WNW 14:31:04 47° NW
Delta 2 Rocket 4.3 14:26:23 10° W 14:32:04 59° NW 14:32:04 59° NW
Hubble Space Telescope 3.5 14:34:07 10° W 14:35:22 18° W 14:35:22 18° W
ATLAS 5 CENTAUR R/B 4.0 14:48:33 10° WSW 14:57:10 71° SSE 15:52:02 10° ENE
CZ-4C R/B 3.9 14:59:14 10° NW 15:06:53 46° WSW 15:08:06 43° SW
CZ-3B R/B 4.3 15:24:58 10° WNW 15:44:06 62° NNW 15:44:06 62° NNW
ATLAS 5 CENTAUR R/B 4.3 21:31:25 28° E 21:31:25 28° E 21:35:59 10° ESE
Milstar 3 3.8 21:47:32 42° SE 21:47:32 42° SE 21:52:39 10° E
Centaur D-1AR AC-39 4.3 22:01:44 15° ENE 22:01:44 15° ENE 22:02:19 10° ENE
MSX 4.4 22:06:59 10° NNE 22:12:25 53° E 22:12:25 53° E
Cosmos 2333 Rocket 3.1 22:32:37 36° N 22:32:37 36° N 22:35:54 10° NNE
Centaur D-1AR AC-36 3.3 22:29:06 59° W 22:30:55 87° SSW 23:28:06 10° ESE
Centaur D-1AR AC-36 3.3 22:29:06 60° W 22:30:56 87° SSW 23:28:06 10° ESE
NOSS 3-4 (A) 3.8 22:35:17 20° S 22:39:23 60° ESE 22:45:17 10° NE
NOSS 3-4 (C) 3.8 22:35:08 19° S 22:39:28 60° ESE 22:45:23 10° NE
BLOCK DM-SL R/B 4.3 22:35:45 22° SSW 22:39:44 33° SSE 23:15:44 10° E
Meteor 1-15 Rocket 4.1 22:42:10 71° SW 22:42:10 71° SW 22:47:16 10° S
Cosmos 371 Rocket 3.6 22:44:57 56° S 22:44:57 56° S 22:48:46 10° S
Cosmos 1025 Rocket 3.7 22:39:55 10° S 22:44:05 53° E 22:48:13 10° NNE
Cosmos 1709 Rocket 4.3 22:46:27 46° NW 22:46:27 46° NW 22:51:05 10° N
Cosmos 1536 Rocket 3.6 22:46:44 66° SE 22:47:09 73° E 22:51:27 10° N
GPS 2-17 Rocket1 3.3 22:48:29 56° SE 22:48:29 56° SE 22:52:28 10° E
Milstar 3 Cent rocket 2.1 22:52:14 51° WSW 22:53:43 85° SSE 22:58:24 10° ENE
Cosmos 1455 Rocket 3.2 22:49:50 10° N 22:54:09 72° E 22:58:26 10° S
Cosmos 1544 Rocket 4.1 22:52:46 10° N 22:57:00 57° E 23:01:15 10° SSE
Molniya-1 4.2 22:55:27 27° S 22:57:22 66° ESE 23:04:16 10° NNE
GPS 2-14 Rocket1 2.8 23:05:19 55° N 23:05:19 55° N 23:08:57 10° ENE
Cosmos 1302 Rocket 3.9 23:02:59 10° NNW 23:08:16 75° WSW 23:13:32 10° S
NATO 3D Rocket 4.1 23:05:11 34° W 23:08:48 76° NNW 23:14:41 10° ENE
CZ-4B R/B 3.8 23:05:37 10° N 23:09:37 73° WNW 23:13:50 10° SSW
PSLV R/B 4.4 23:07:08 10° NNE 23:10:45 52° ESE 23:14:20 10° S
Aureole 3 3.5 23:14:51 40° SW 23:14:51 40° SW 23:17:42 10° S
ATLAS 5 CENTAUR R/B 3.2 23:13:05 31° W 23:14:36 34° WSW 23:20:53 10° S
Cosmos 2219 Rocket 3.4 23:17:57 22° NW 23:17:57 22° NW 23:20:56 10° NNW
Cosmos 2237 Rocket 2.1 23:12:49 10° SSW 23:18:27 80° WNW 23:24:07 10° NNE
ATLAS 2AS CENTAUR R/B 3.3 23:14:37 22° WSW 23:19:12 42° WNW 23:26:41 10° N
Cosmos 2074 Rocket 3.9 23:13:32 10° S 23:19:48 84° W 23:26:04 10° N
COSMOS 2428 4.0 23:22:25 20° NW 23:22:25 20° NW 23:25:30 10° NNW
Ariane H10-3 3.4 23:21:31 13° SSW 23:22:29 15° SSE 23:24:45 10° SE
Longmarch 3A Rocket 2.7 23:20:37 16° SW 23:22:58 29° SSE 23:24:50 10° E
IUS-9 SRM-1 3.9 23:23:28 12° N 23:24:22 13° NNE 23:26:24 10° NE
Cosmos 614 Rocket 3.9 23:19:37 10° SSW 23:24:49 77° WNW 23:30:02 10° N
CZ-2C R/B 2.9 23:20:45 10° N 23:25:31 39° WNW 23:30:14 10° SW
Cosmos 1766 3.5 23:26:17 10° NNW 23:30:01 45° W 23:33:48 10° SSW
Cosmos 2084 4.4 23:31:30 25° WSW 23:31:54 25° WSW 23:35:17 10° SSW
SEDSat Delta rocket 3.8 23:28:40 19° NW 23:32:21 65° NNE 23:38:10 10° ESE
Cosmos 1980 3.8 23:28:52 10° SSW 23:34:19 49° WNW 23:39:45 10° N
Cosmos 676 Rocket 4.5 23:31:26 10° S 23:36:42 65° ESE 23:41:56 10° NNE
Cosmos 2181 Rocket 4.0 23:31:00 10° NNW 23:37:12 62° W 23:43:18 10° S
Cosmos 1184 Rocket 3.7 23:40:51 15° NW 23:42:45 25° W 23:45:30 10° SSW
Cosmos 1805 4.2 23:41:47 10° NW 23:45:05 26° W 23:48:23 10° SSW
Stardust Del rocket 3.4 23:42:22 15° WNW 23:46:16 60° N 23:49:08 10° E
Cosmos 1023 Rocket 4.4 23:41:35 10° SSW 23:46:47 68° WNW 23:51:56 10° N
Cosmos 1190 Rocket 4.2 23:42:38 10° SSW 23:47:42 47° WNW 23:52:49 10° N
Meteor 1-31 Rocket 4.2 23:46:05 10° NNW 23:48:36 17° WNW 23:51:06 10° WSW
Delta 7925 Rocket 3.8 23:47:57 14° W 23:52:40 49° NNW 23:57:19 10° ENE
Meteor 1-4 Rocket 2.4 23:49:12 10° S 23:52:48 72° W 23:56:21 10° N
CZ-4B R/B 3.4 23:47:43 10° NNE 23:52:58 75° ESE 23:58:15 10° S
Cosmos 407 Rocket 4.1 23:49:22 10° SW 23:54:02 33° WNW 23:58:39 10° N
SWIFT 2.8 23:52:14 13° W 23:55:44 48° SSW 23:59:46 10° ESE
Cosmos 1707 3.2 23:52:26 10° SSW 23:56:03 38° W 23:59:42 10° NNW
